[[{"header":{"parameterUnit":"m.s-1","parameterCategory":1,"la1":30.2991,"la2":30.254,"lo1":-89.0895,"lo2":-89.0444,"dy":0.0017,"dx":0.0017,"nx":28,"ny":28,"refTime":"2023-09-03T03:00:00:Z","depth":0,"parameterNumber":2,"parameterNumberName":"U-component_of_WINDS"},"data":[0,0,0,0,0,0,0,0,0,0,0,0,0,0,0,0,0,0,0,0,0,0,0,0,0,0,0,0,0,0,0,0,0,0,0,0,0,0,0,0,0,0,0,0,0,0,0,0,0,0,0,0,0,0,0,0,0,0,-3.1878,-3.1879,0,-3.1964,-3.1965,-3.1966,-3.1954,-3.1952,-3.1951,-3.195,-3.2037,-3.2041,-3.2044,0,0,0,0,0,0,0,0,0,0,0,0,0,-3.1704,-3.1707,-3.1878,-3.1879,-3.188,-3.1964,-3.1965,-3.1966,-3.1954,-3.1952,-3.1951,-3.1949,-3.2036,-3.204,-3.2045,0,0,0,0,0,0,0,0,0,0,0,0,0,-3.1784,-3.1708,-3.1878,-3.1884,-3.1886,-3.1963,-3.1965,-3.1966,-3.1955,-3.1952,-3.195,-3.1948,-3.2035,-3.204,-3.2045,-3.2122,0,0,-3.2062,-3.2064,0,0,0,0,0,0,0,0,-3.1779,-3.179,-3.1882,-3.1884,-3.1886,-3.1946,-3.1935,-3.2018,-3.1955,-3.1928,-3.195,-3.1947,-3.2009,-3.2016,-3.2037,-3.2126,-3.213,-3.2062,-3.2066,-3.2068,-3.207,0,0,0,0,0,0,0,-3.1774,-3.1786,-3.1912,-3.1884,-3.1886,-3.1883,-3.1892,-3.1951,-3.1979,-3.1931,-3.193,-3.194,-3.2009,-3.2032,-3.2039,-3.2131,-3.2062,-3.2067,-3.2071,-3.2073,-3.2285,-3.2288,0,0,0,0,0,0,-3.1766,-3.1782,-3.1909,-3.1915,-3.1826,-3.1888,-3.1898,-3.1929,-3.1979,-3.1984,-3.1942,-3.1939,-3.2023,-3.2032,-3.2042,-3.2133,-3.2068,-3.2073,-3.2076,-3.2283,-3.2286,-3.2289,0,0,0,0,0,0,-3.1763,-3.1778,-3.1906,-3.1848,-3.1864,-3.1893,-3.1928,-3.1932,-3.1954,-3.1987,-3.1992,-3.196,-3.2022,-3.2034,-3.2102,-3.2136,-3.2076,-3.2081,-3.228,-3.2284,-3.2287,-3.2318,0,0,0,0,0,0,-3.1758,-3.1777,-3.1806,-3.1849,-3.1867,-3.1965,-3.193,-3.1935,-3.1964,-3.1961,-3.2005,-3.2011,-3.2021,-3.2093,-3.2107,-3.2143,-3.2085,-3.2277,-3.2282,-3.2286,-3.2314,-3.2322,-3.2329,0,0,0,0,0,-3.1752,-3.1812,-3.1808,-3.1823,-3.1905,-3.1967,-3.1977,-3.1988,-3.1966,-3.1996,-3.2017,-3.2009,-3.2131,-3.2101,-3.2116,-3.2153,-3.2275,-3.2281,-3.2286,-3.231,-3.232,-3.2328,0,0,0,0,0,0,-3.1772,-3.1817,-3.1814,-3.1889,-3.1924,-3.1964,-3.2002,-3.1998,-3.204,-3.2036,-3.2048,-3.2058,-3.2126,-3.2147,-3.2113,-3.2229,-3.22,-3.2208,-3.2213,-3.2223,-3.223,-3.2223,-3.209,0,0,0,0,0,-3.1786,-3.1832,-3.1869,-3.1932,-3.195,-3.1973,-3.2001,-3.2006,-3.2043,-3.2057,-3.2084,-3.2119,-3.2165,-3.2196,-3.224,-3.2317,-3.2326,-3.235,-3.2358,-3.2364,-3.2371,-3.2412,-3.2423,-3.2306,-3.2306,-3.2306,0,0,-3.1814,-3.1844,-3.1873,-3.1937,-3.1965,-3.2012,-3.1986,-3.2037,-3.2072,-3.2065,-3.213,-3.2151,-3.2192,-3.2264,-3.2297,-3.2283,-3.2405,-3.2371,-3.2375,-3.2379,-3.2418,-3.2429,-3.2439,-3.231,-3.2309,-3.2308,0,0,-3.1889,-3.1917,-3.1972,-3.2,-3.2043,-3.2057,-3.2071,-3.2112,-3.2125,-3.219,-3.2186,-3.2228,-3.2307,-3.2336,-3.2361,-3.2447,-3.244,-3.2461,-3.25,-3.2539,-3.2549,-3.2557,-3.2586,-3.2596,-3.2468,-3.2468,-3.2468,0,-3.1919,-3.199,-3.2001,-3.2053,-3.2081,-3.2076,-3.2132,-3.2159,-3.2213,-3.2232,-3.2216,-3.2315,-3.2342,-3.2421,-3.2441,-3.2462,-3.2477,-3.2455,-3.2546,-3.2555,-3.2563,-3.259,-3.2601,-3.247,-3.247,-3.247,-3.2469,0,-3.2023,-3.2073,-3.2112,-3.2165,-3.2197,-3.2251,-3.2269,-3.2301,-3.2304,-3.232,-3.2386,-3.2419,-3.2469,-3.2488,-3.2492,-3.2567,-3.2557,-3.2544,-3.2514,-3.2575,-3.2602,-3.2613,-3.2473,-3.2472,-3.2472,-3.2471,0,0,-3.2114,-3.2171,-3.2185,-3.2208,-3.2254,-3.2293,-3.2346,-3.2395,-3.2421,-3.2459,-3.2503,-3.257,-3.2558,-3.2586,-3.2593,-3.2628,-3.2692,-3.261,-3.2611,-3.2623,-3.2775,-3.2784,-3.2796,-3.2688,-3.269,-3.2692,-3.2771,0,-3.2192,-3.2285,-3.2296,-3.2379,-3.2425,-3.2421,-3.2467,-3.25,-3.2517,-3.2558,-3.2576,-3.2623,-3.2604,-3.2621,-3.2656,-3.2677,-3.2722,-3.2671,-3.2728,-3.273,-3.2717,-3.281,-3.282,-3.2892,-3.2782,-3.2783,-3.2785,0,-3.2296,-3.2336,-3.2423,-3.2462,-3.2481,-3.2522,-3.2568,-3.2607,-3.2644,-3.2654,-3.2685,-3.2687,-3.2741,-3.2711,-3.2785,-3.275,-3.2774,-3.2788,-3.2791,-3.2796,-3.276,-3.2816,-3.2916,-3.2926,-3.2801,-3.28,-3.2799,0,-3.2351,-3.2427,-3.2489,-3.2509,-3.2556,-3.2585,-3.2606,-3.2641,-3.2669,-3.2709,-3.2727,-3.2773,-3.2798,-3.2833,-3.2847,-3.2823,-3.292,-3.289,-3.2928,-3.2928,-3.2948,-3.2946,-3.3052,-3.2966,-3.2966,-3.2966,-3.2965,0,-3.2437,-3.249,-3.2514,-3.2552,-3.2611,-3.2623,-3.2681,-3.2701,-3.2732,-3.2773,-3.2774,-3.2812,-3.2829,-3.287,-3.2882,-3.2941,-3.2952,-3.2961,-3.2963,-3.296,-3.2959,-3.2975,-3.297,-3.2969,-3.2968,-3.2967,-3.2967,0,-3.2508,-3.2526,-3.2593,-3.2632,-3.2643,-3.2685,-3.2718,-3.2754,-3.277,-3.2822,-3.2835,-3.2861,-3.291,-3.2927,-3.2987,-3.2994,-3.3062,-3.3061,-3.3049,-3.3049,-3.3086,-3.3082,-3.3205,-3.3221,-3.3126,-3.3127,-3.3127,0,-3.2561,-3.2602,-3.2644,-3.2672,-3.2694,-3.2738,-3.2767,-3.278,-3.281,-3.2855,-3.2886,-3.2934,-3.2973,-3.3051,-3.3074,-3.3119,-3.3118,-3.3158,-3.3125,-3.312,-3.3117,-3.3114,-3.3117,-3.3164,-3.3165,-3.3166,-3.3167,0,-3.2652,-3.2659,-3.27,-3.2745,-3.2779,-3.2814,-3.2849,-3.2871,-3.289,-3.2924,-3.2973,-3.3003,-3.3063,-3.3111,-3.3157,-3.3178,-3.3175,-3.3177,-3.3188,-3.3185,-3.3176,-3.318,-3.3065,-3.3174,-3.3173,-3.3173,-3.3172,-3.3172,-3.2715,-3.275,-3.2786,-3.2831,-3.2859,-3.2891,-3.2926,-3.2947,-3.2988,-3.3037,-3.3043,-3.3096,-3.3131,-3.3193,-3.3216,-3.3257,-3.3246,-3.3263,-3.3266,-3.327,-3.3272,-3.317,-3.3266,-3.3266,-3.3266,-3.3265,-3.3265,0,-3.2805,-3.2828,-3.2869,-3.2917,-3.2953,-3.2947,-3.2985,-3.3015,-3.3061,-3.3095,-3.3133,-3.3189,-3.3235,-3.3262,-3.3308,-3.3335,-3.3335,-3.3347,-3.3344,-3.3349,-3.328,-3.3265,-3.3346,-3.3346,-3.3346,-3.3346,-3.3346,-3.3346,-3.2856,-3.2915,-3.2926,-3.2998,-3.302,-3.3072,-3.3093,-3.3123,-3.3149,-3.3211,-3.3249,-3.3267,-3.3297,-3.3345,-3.3387,-3.3394,-3.341,-3.3422,-3.3428,-3.3362,-3.3354,-3.3346,-3.3332,-3.3426,-3.3426,-3.3494,-3.3494,-3.3495]},{"header":{"parameterUnit":"m.s-1","parameterCategory":1,"la1":30.2991,"la2":30.254,"lo1":-89.0895,"lo2":-89.0444,"dy":0.0017,"dx":0.0017,"nx":28,"ny":28,"refTime":"2023-09-03T03:00:00:Z","depth":0,"parameterNumber":3,"parameterNumberName":"V-component_of_WINDS"},"data":[0,0,0,0,0,0,0,0,0,0,0,0,0,0,0,0,0,0,0,0,0,0,0,0,0,0,0,0,0,0,0,0,0,0,0,0,0,0,0,0,0,0,0,0,0,0,0,0,0,0,0,0,0,0,0,0,0,0,4.2626,4.2627,0,4.2688,4.2688,4.2689,4.2643,4.2641,4.264,4.2638,4.2698,4.2701,4.2704,0,0,0,0,0,0,0,0,0,0,0,0,0,4.2466,4.247,4.2626,4.2627,4.2628,4.2688,4.2688,4.2689,4.2644,4.2641,4.2639,4.2637,4.2696,4.2701,4.2705,0,0,0,0,0,0,0,0,0,0,0,0,0,4.2533,4.2471,4.2626,4.2613,4.2612,4.2687,4.2688,4.2689,4.2644,4.2641,4.2638,4.2636,4.2695,4.27,4.2705,4.2797,0,0,4.2721,4.2723,0,0,0,0,0,0,0,0,4.2529,4.2539,4.2614,4.2614,4.2613,4.2655,4.2654,4.2725,4.2645,4.2632,4.2638,4.2634,4.2686,4.2691,4.2709,4.28,4.2802,4.2721,4.2725,4.2727,4.2728,0,0,0,0,0,0,0,4.2524,4.2536,4.2651,4.2615,4.2614,4.2602,4.2608,4.2667,4.2675,4.2633,4.263,4.2638,4.2685,4.2704,4.271,4.2803,4.2721,4.2726,4.2729,4.2731,4.2969,4.2972,0,0,0,0,0,0,4.2522,4.2532,4.2649,4.2652,4.2563,4.2607,4.2614,4.2644,4.2674,4.2676,4.264,4.2635,4.2697,4.2704,4.2712,4.282,4.2727,4.2732,4.2735,4.2966,4.297,4.2974,0,0,0,0,0,0,4.2518,4.2532,4.2646,4.2591,4.2605,4.2613,4.2648,4.2647,4.2667,4.268,4.268,4.2659,4.2695,4.2705,4.2776,4.2821,4.2734,4.2739,4.2962,4.2967,4.2972,4.3037,0,0,0,0,0,0,4.2514,4.2532,4.2567,4.2593,4.2608,4.271,4.2651,4.2651,4.2676,4.267,4.2697,4.2699,4.2693,4.2768,4.2781,4.2827,4.2743,4.2958,4.2965,4.297,4.303,4.3043,4.3054,0,0,0,0,0,4.2508,4.2583,4.2569,4.2584,4.2653,4.2713,4.2721,4.2714,4.268,4.2715,4.2723,4.2698,4.2815,4.2776,4.279,4.2838,4.2955,4.2963,4.297,4.3025,4.3041,4.3054,0,0,0,0,0,0,4.2562,4.2586,4.2571,4.2656,4.2683,4.2705,4.2749,4.2731,4.2767,4.276,4.2749,4.2755,4.2829,4.2841,4.2797,4.2927,4.2879,4.289,4.2917,4.2932,4.2943,4.2938,4.2747,0,0,0,0,0,4.2584,4.2631,4.2649,4.2722,4.2737,4.2741,4.2766,4.2759,4.2785,4.2796,4.2809,4.2835,4.2877,4.2905,4.2945,4.3032,4.3036,4.3072,4.3084,4.3094,4.3102,4.3147,4.3163,4.2997,4.2997,4.2997,0,0,4.2629,4.2648,4.2678,4.2734,4.2753,4.2801,4.275,4.2804,4.2838,4.2804,4.2871,4.2882,4.291,4.2989,4.3024,4.3001,4.3149,4.3103,4.311,4.3114,4.3156,4.3172,4.3186,4.3002,4.3001,4.3001,0,0,4.2736,4.2756,4.2818,4.2839,4.2869,4.2872,4.2887,4.2912,4.2917,4.2985,4.296,4.3001,4.3074,4.3095,4.3115,4.3229,4.3206,4.3242,4.3303,4.3347,4.336,4.3371,4.341,4.3424,4.3251,4.3251,4.3251,0,4.2788,4.286,4.2852,4.2907,4.2931,4.2903,4.2965,4.2985,4.3027,4.3044,4.3017,4.3108,4.3125,4.3208,4.3236,4.3254,4.3269,4.3238,4.3359,4.337,4.3381,4.3418,4.3433,4.3255,4.3254,4.3254,4.3254,0,4.2921,4.2972,4.3018,4.306,4.3089,4.3148,4.3148,4.3178,4.3168,4.3173,4.3241,4.3261,4.3303,4.3323,4.3313,4.3404,4.3388,4.3361,4.3312,4.3401,4.3435,4.3449,4.3261,4.3259,4.3258,4.3257,0,0,4.3063,4.3099,4.3116,4.3134,4.3165,4.3203,4.326,4.3302,4.3328,4.3358,4.3403,4.3466,4.3441,4.3464,4.3456,4.3495,4.3582,4.3463,4.3463,4.3483,4.3681,4.37,4.3717,4.3568,4.3571,4.3573,4.3678,0,4.3169,4.3269,4.3263,4.3355,4.3401,4.3374,4.3423,4.3447,4.3453,4.3491,4.3497,4.3541,4.3505,4.3518,4.3556,4.3564,4.3621,4.3556,4.3609,4.3611,4.3601,4.3735,4.3756,4.3854,4.3691,4.3694,4.3695,0,4.3307,4.3342,4.3439,4.3462,4.3481,4.3525,4.3563,4.3601,4.3626,4.3628,4.3653,4.3639,4.3694,4.3646,4.3721,4.3677,4.3698,4.3705,4.3709,4.3712,4.3657,4.374,4.3885,4.3899,4.3717,4.3715,4.3714,0,4.3398,4.3469,4.3536,4.3552,4.3582,4.3613,4.3627,4.365,4.3675,4.3708,4.3724,4.3763,4.3783,4.3813,4.3809,4.3774,4.3885,4.3837,4.3886,4.3886,4.3909,4.3908,4.4058,4.3926,4.3926,4.3926,4.3926,0,4.3517,4.3577,4.3577,4.3618,4.3684,4.3677,4.3742,4.3752,4.3772,4.3814,4.3793,4.3832,4.3826,4.3864,4.3862,4.3923,4.3933,4.3935,4.3933,4.3936,4.3935,4.3948,4.3941,4.393,4.3929,4.3928,4.3927,0,4.3629,4.3632,4.3703,4.3725,4.3732,4.3779,4.3798,4.3836,4.384,4.3892,4.3904,4.391,4.3955,4.3954,4.4005,4.4003,4.4078,4.4069,4.4069,4.4067,4.4116,4.4111,4.4279,4.43,4.4156,4.4157,4.4158,0,4.3704,4.375,4.3777,4.3803,4.3819,4.3862,4.3888,4.3882,4.3909,4.3942,4.3976,4.4019,4.4052,4.4124,4.4132,4.4171,4.4162,4.4218,4.4167,4.4168,4.416,4.4157,4.416,4.4227,4.4229,4.423,4.4231,0,4.3836,4.3835,4.3873,4.3912,4.3943,4.3973,4.4001,4.4024,4.4021,4.4053,4.4098,4.4124,4.4176,4.4218,4.4255,4.4267,4.4248,4.4247,4.4261,4.4263,4.426,4.426,4.4095,4.4243,4.4242,4.4241,4.424,4.424,4.3931,4.3969,4.3994,4.4037,4.4057,4.4083,4.412,4.4128,4.4166,4.4208,4.4203,4.4253,4.4276,4.4324,4.434,4.4378,4.4358,4.4378,4.4382,4.4387,4.4391,4.4256,4.4385,4.4385,4.4384,4.4384,4.4384,0,4.406,4.4074,4.4114,4.4153,4.4187,4.4167,4.4197,4.4225,4.427,4.4294,4.4328,4.4379,4.442,4.4431,4.447,4.4499,4.4491,4.4509,4.4506,4.4509,4.4408,4.4392,4.4514,4.4514,4.4514,4.4514,4.4514,4.4514,4.4131,4.4194,4.4196,4.4269,4.4283,4.4333,4.4351,4.4374,4.4393,4.4452,4.4485,4.4493,4.4512,4.4551,4.4587,4.4589,4.4604,4.4625,4.4624,4.4529,4.4516,4.4503,4.4488,4.4629,4.4629,4.4721,4.4722,4.4722]}]]